Regional Weather Roundup
Issued by NWS Charleston, SC

Current Version | Previous Version | Graphics & Text | Print | Product List | Glossary On
Versions: 1 2 3 4 5 6 7 8 9 10 11 12 13 14 15 16 17 18 19 20 21 22 23 24 25 26 27 28 29 30 31 32 33 34 35 36 37 38 39 40 41 42 43 44 45 46 47 48 49 50
000
ASUS42 KCHS 031311
RWRCHS

REGIONAL WEATHER ROUNDUP
NATIONAL WEATHER SERVICE CHARLESTON SC
800 AM EST TUE MAR 03 2015

NOTE: "FAIR" INDICATES FEW OR NO CLOUDS BELOW 12,000 FEET WITH NO
SIGNIFICANT WEATHER AND/OR OBSTRUCTIONS TO VISIBILITY.

NOT ALL STATIONS ARE QUALITY CONTROLLED BY THE NATIONAL
WEATHER SERVICE. USE DATA WITH CAUTION...ESPECIALLY
DEWPOINT OBSERVATIONS.

SCZ027-030-031-034>040-042>050-031400-
...SOUTHEAST SOUTH CAROLINA...

CITY           SKY/WX    TMP DP  RH WIND       PRES   REMARKS
N CHARLESTON   CLOUDY    54  48  80 E7G17     30.28R
WATERFRONT PRK   N/A     52 N/A N/A NE9         N/A
MOUNT PLEASANT CLOUDY    52  46  82 NE6       30.28S
PINOPOLIS      NOT AVBL
MONCKS CORNER  CLOUDY    52  46  82 E7        30.28S
SUMMERVILLE    RAIN      54  52  94 NE3       30.29R
BEAUFORT MCAS  CLOUDY    56  53  90 E5        30.26R
BEAUFORT ARPT  CLOUDY    54  54 100 E7        30.26R
HILTON HEAD IS CLOUDY    54  54 100 NE7       30.28R
WALTERBORO     DRIZZLE   55  55 100 E3        30.28R
ALLENDALE      CLOUDY    55  55 100 CALM      30.25S FOG

...SOUTHERN MIDLANDS AND PEE DEE...

CITY           SKY/WX    TMP DP  RH WIND       PRES   REMARKS
GEORGETOWN     NOT AVBL
KINGSTREE      NOT AVBL
ORANGEBURG     LGT RAIN  51  48  89 E5        30.28R FOG
BARNWELL       DRIZZLE   55  55 100 E7        30.26S
AIKEN          CLOUDY    54  54 100 E5        30.28S FOG
MANNING        DRIZZLE  N/A N/A N/A CALM      30.29R
COLUMBIA       DRIZZLE   53  50  89 E9        30.28R FOG
SUMTER         CLOUDY    48  44  86 NE9       30.29R
FLORENCE       CLOUDY    44  28  53 E12       30.30F
MYRTLE BEACH   CLOUDY    46  34  61 NE12      30.33S
N MYRTLE BEACH LGT RAIN  45  34  65 NE10      30.32R

$$

GAZ063-065-086>088-099>101-113>116-118-119-134>141-150-031400-
...SOUTHEAST GEORGIA...

CITY           SKY/WX    TMP DP  RH WIND       PRES   REMARKS
SAVANNAH ARPT  FOG       57  56  96 SE3       30.25R VSB<1/4
HUNTER AAF     FOG       56  56 100 E5        30.24R VSB 1
FORT STEWART   CLOUDY    58  57  96 CALM      30.23R
STATESBORO     LGT RAIN  57  57 100 CALM      30.24S
SYLVANIA       FOG       56  56 100 CALM      30.26R VSB 1/2
CLAXTON        CLOUDY    59  59 100 CALM      30.25R FOG

...CSRA...CENTRAL AND FAR SOUTHEAST GEORGIA...

CITY           SKY/WX    TMP DP  RH WIND       PRES   REMARKS
THOMSON        CLOUDY    58  58 100 CALM      30.29R
AUGUSTA-BUSH   CLOUDY    56  55  97 E3        30.25R
AUGUSTA-DANIEL FOG       57  54  89 E8        30.25R VSB 1/4
SWAINSBORO     NOT AVBL
VIDALIA        CLOUDY    61  61 100 CALM      30.23F FOG
EASTMAN        CLOUDY    60  60 100 CALM      30.25S FOG
HAZLEHURST     PTSUNNY   61  61 100 CALM      30.23R FOG
ALMA           CLOUDY    56  56 100 CALM      30.24R FOG
WAYCROSS       CLOUDY    62  62 100 CALM      30.24R FOG
JESUP          CLOUDY    63  61  94 CALM      30.24S FOG
BAXLEY         CLOUDY    59  59 100 CALM      30.24R FOG
BRUNSWICK      PTSUNNY   59  59 100 CALM      30.26R
SAINT SIMONS   CLOUDY    58  56  93 NE3       30.25R FOG

$$

SCZ027-028-034-036>038-045-046-048>050-GAZ119-141-031400-
...LAKE AND SUPPLEMENTAL COASTAL OBSERVATIONS...

STATION/POSITION TIME  TEMP    WIND        PRES    WAVE   SWELL
                       AIR SEA DIR/SP/G            HT/PER HT/PER/DIR
                 (UTC) (F)     (DEG/KT/KT) (MB)    (FT/S) (FT/S/D)
UPR LAKE MARION  NOT AVBL
WINYAH BAY       NOT AVBL
LAKE MURRAY      1200   52      80/  1/  6 1024.0F
ACE BASIN NERRS  NOT AVBL
FORT PULASKI     1200   50 49   50/  9/ 12 1024.5R
SAPELO ISLAND    1200   56      40/  2     1023.0S

$$

ANZ835-935-AMZ111-154-330-350-352-354-370-450-454-472-031400-
...C-MAN AND BUOY OBSERVATIONS...

STATION/POSITION TIME  TEMP    WIND        PRES    WAVE   SWELL
                       AIR SEA DIR/SP/G            HT/PER HT/PER/DIR
                 (UTC) (F)     (DEG/KT/KT) (MB)    (FT/S) (FT/S/D)
BUOY 41004       1250   68 69   90/ 12/ 14 1023.9R   5/ 6   3/ 6
BUOY 41008       1250   57 54  100/  2/  2 1023.9R   2/10   2/100/10
FOLLY BEACH CMAN 1300   49      40/ 18/ 20 1025.6R
CAPERS NEARSHORE NOT AVBL
FRIPP NEARSHORE  1200   50      60/ 12/ 14 1023.4R


STATION/POSITION TIME  TEMP    WIND        PRES    WAVE   SWELL
                       AIR SEA DIR/SP/G            HT/PER HT/PER/DIR
                 (UTC) (F)     (DEG/KT/KT) (MB)    (FT/S) (FT/S/D)
5E ST. MARYS GA  1221      53                N/A     3/ 9   2/110/11
FRYING PAN BUOY  1250   61 61   90/ 14/ 16 1026.4R   6/ 6   3/ 70/ 7
BUOY 41025       NOT AVBL
CAPE LOOKOUT NC  1200   43      30/ 17/ 19 1027.3F
BUOY 41002       1250   65 73   70/ 17/ 23 1025.8R   7/ 7
BUOY 41010       1220   73 75   90/  8/ 10 1023.6R
ST AUGUSTINE FL  1300   61     160/  4/  4 1024.4R


$$



USA.gov is the U.S. government's official web portal to all federal, state and local government web resources and services.